San Francisco Weather Center

Moon Phase Calendar



Online Cameras

 


      

Current Conditions in San Francisco
5/14/2021 4:15:39 PM

55°F
Feels Like 54
Clouds
Humidity
72%
Pressure
29.94"
Wind
10.4 mph (WSW)
Dew Point
47°F
UV Index
5/10 (Moderate)
Visibility
6 mi

Hourly Forecast

Date & Time Fri, May 14
4:00 PM
Fri, May 14
5:00 PM
Fri, May 14
6:00 PM
Fri, May 14
7:00 PM
Fri, May 14
8:00 PM
Fri, May 14
9:00 PM
Fri, May 14
10:00 PM
Fri, May 14
11:00 PM
Sat, May 15
12:00 AM
Sat, May 15
1:00 AM
Sat, May 15
2:00 AM
Sat, May 15
3:00 AM
Sat, May 15
4:00 AM
Sat, May 15
5:00 AM
Sat, May 15
6:00 AM
Sat, May 15
7:00 AM
Sat, May 15
8:00 AM
Sat, May 15
9:00 AM
Sat, May 15
10:00 AM
Sat, May 15
11:00 AM
Sat, May 15
12:00 PM
Sat, May 15
1:00 PM
Sat, May 15
2:00 PM
Sat, May 15
3:00 PM
Sat, May 15
4:00 PM
Sat, May 15
5:00 PM
Sat, May 15
6:00 PM
Sat, May 15
7:00 PM
Sat, May 15
8:00 PM
Sat, May 15
9:00 PM
Sat, May 15
10:00 PM
Sat, May 15
11:00 PM
Sun, May 16
12:00 AM
Sun, May 16
1:00 AM
Sun, May 16
2:00 AM
Sun, May 16
3:00 AM
Sun, May 16
4:00 AM
Sun, May 16
5:00 AM
Sun, May 16
6:00 AM
Sun, May 16
7:00 AM
Sun, May 16
8:00 AM
Sun, May 16
9:00 AM
Sun, May 16
10:00 AM
Sun, May 16
11:00 AM
Sun, May 16
12:00 PM
Sun, May 16
1:00 PM
Sun, May 16
2:00 PM
Sun, May 16
3:00 PM
Condition
Clouds

Clouds

Clouds

Clouds

Clouds

Clouds

Clouds

Clouds

Clouds

Clouds

Clouds

Clouds

Rain

Rain

Clouds

Clouds

Clouds

Clouds

Clouds

Clouds

Clouds

Clouds

Clouds

Clouds

Clouds

Clouds

Clouds

Clouds

Clouds

Clouds

Clouds

Clouds

Clouds

Clouds

Clouds

Clouds

Clouds

Clouds

Clouds

Clouds

Clouds

Clouds

Clouds

Clouds

Clouds

Clouds

Clouds

Clouds
Temperature 55°F56°F55°F54°F53°F52°F52°F52°F52°F52°F52°F51°F51°F51°F51°F52°F52°F53°F53°F54°F56°F58°F60°F61°F61°F60°F58°F56°F54°F53°F53°F53°F52°F52°F51°F52°F51°F52°F51°F52°F53°F54°F55°F57°F59°F59°F59°F58°F
Feels Like 54°F54°F54°F53°F52°F51°F51°F51°F51°F50°F51°F50°F50°F50°F51°F51°F51°F52°F52°F53°F55°F57°F58°F59°F60°F58°F57°F55°F53°F52°F52°F52°F51°F51°F50°F51°F50°F51°F50°F51°F52°F53°F54°F56°F58°F58°F58°F57°F
Cloudiness 90%78%63%54%55%53%58%62%92%95%97%98%98%98%100%98%98%99%99%99%99%92%94%86%72%61%65%71%80%85%88%90%77%61%65%73%79%82%90%91%92%92%93%91%44%39%33%28%
Visibility 6 mi6 mi6 mi6 mi6 mi6 mi6 mi6 mi6 mi6 mi6 mi6 mi6 mi6 mi6 mi6 mi6 mi6 mi6 mi6 mi6 mi6 mi6 mi6 mi6 mi6 mi6 mi6 mi6 mi6 mi6 mi6 mi6 mi6 mi6 mi6 mi6 mi6 mi6 mi6 mi6 mi6 mi6 mi6 mi6 mi6 mi6 mi6 mi
Precipitation 0%0%0%0%0%0%4%4%15%23%25%25%29%29%20%11%8%4%4%4%0%0%0%0%0%0%0%0%0%0%0%0%0%0%0%0%0%0%0%0%0%0%0%0%0%0%0%0%
Humidity 72%73%75%79%83%86%85%85%84%85%84%87%89%91%91%90%88%85%83%79%76%70%67%65%65%67%71%76%82%85%84%85%89%90%90%89%89%88%88%84%83%80%77%72%69%68%68%70%
Dew Point 47°F47°F47°F48°F48°F48°F47°F47°F47°F47°F47°F47°F48°F48°F48°F48°F48°F48°F48°F48°F48°F48°F48°F48°F48°F48°F48°F48°F48°F48°F48°F48°F49°F48°F48°F48°F48°F48°F47°F47°F48°F47°F48°F48°F48°F48°F48°F48°F
Pressure 29.94"29.94"29.91"29.91"29.88"29.88"29.88"29.88"29.88"29.88"29.88"29.85"29.85"29.85"29.85"29.85"29.88"29.88"29.91"29.91"29.91"29.88"29.85"29.85"29.83"29.83"29.83"29.85"29.88"29.88"29.88"29.85"29.88"29.85"29.88"29.88"29.88"29.88"29.91"29.91"29.94"29.94"29.94"29.94"29.94"29.94"29.94"29.94"
Wind Speed 15.5 mph15.8 mph16.2 mph16.5 mph18.2 mph18.5 mph19.1 mph18 mph17.3 mph17.4 mph16.2 mph14.4 mph14 mph11.9 mph7.8 mph5.7 mph4.6 mph4 mph3.5 mph3 mph1.5 mph3 mph6.1 mph8.4 mph11.2 mph10.9 mph10.7 mph10.4 mph8.2 mph7.1 mph8.6 mph8.6 mph7.4 mph7.8 mph5.3 mph6.9 mph7 mph8.5 mph8 mph8.3 mph8.4 mph8.1 mph8 mph8.3 mph10.7 mph12.1 mph13.6 mph14.6 mph
Wind
Direction
259°
W
261°
W
262°
W
265°
W
266°
W
263°
W
262°
W
258°
WSW
259°
W
252°
WSW
249°
WSW
233°
SW
225°
SW
225°
SW
224°
SW
213°
SSW
205°
SSW
194°
SSW
185°
S
180°
S
210°
SSW
235°
SW
235°
SW
236°
SW
235°
SW
244°
WSW
243°
WSW
259°
W
258°
WSW
253°
WSW
228°
SW
228°
SW
248°
WSW
230°
SW
219°
SW
224°
SW
207°
SSW
207°
SSW
212°
SSW
209°
SSW
218°
SW
216°
SW
217°
SW
233°
SW
242°
WSW
248°
WSW
250°
WSW
253°
WSW

Daily Forecast

Date High Low Precip. Humidity
Today
May 14

Clouds
58 °F
51 °F
7%
69%
Saturday
May 15

Rain
61 °F
51 °F
29%
70%
Sunday
May 16

Clouds
59 °F
51 °F
0%
68%
Monday
May 17

Clouds
59 °F
52 °F
0%
67%
Tuesday
May 18

Clear
61 °F
51 °F
0%
56%
Wednesday
May 19

Clouds
59 °F
51 °F
0%
69%
Thursday
May 20

Clear
57 °F
49 °F
0%
58%
Friday
May 21

Clear
59 °F
47 °F
0%
47%
Saturday
May 22

Clear
61 °F
49 °F
0%
55%
Sunday
May 23

Rain
59 °F
51 °F
34%
61%
Monday
May 24

Clear
59 °F
50 °F
0%
60%
Tuesday
May 25

Clear
60 °F
49 °F
0%
60%
Wednesday
May 26

Clouds
59 °F
50 °F
0%
67%
Thursday
May 27

Clouds
59 °F
52 °F
0%
62%
Friday
May 28

Clear
61 °F
52 °F
0%
55%
Saturday
May 29

Clear
64 °F
50 °F
0%
54%

Temperature 8-14 Day Outlook



Precipitation 8-14 Day Outlook




Quick Links
San Francisco News
San Francisco Photos
San Francisco Videos




About Us
Contact Us
Site Map
Search Site
Advertise With Us
   
SanFrancisco.USCoast.info
THE SAN FRANCISCO WEBSITE

Copyright 2021, Coastal Town
Privacy    |    Legal